User: anonymous   Login
Location: Theydon Bois
(51.6750°N, 0.1050°E)
Time: 00:15:20
(UTC+01:00)
Language:

Cosmos 773 Rocket - Orbit

View from above orbital plane
View from above orbital plane
View from above satellite
View from above satellite

Ground track
Ground track

The orbit data is extracted from the following two-line orbital elements,

1 08344U 75094B   17293.53482785 -.00000029  00000-0 -76584-6 0  9997
2 08344  74.0560 254.6482 0020775 126.7087 233.5980 14.39102392203713
Epoch (UTC): 20 October 2017 12:50:09
Eccentricity: 0.0020775
inclination: 74.0560°
perigee height: 746 km
apogee height: 776 km
right ascension of ascending node: 254.6482°
argument of perigee: 126.7087°
revolutions per day: 14.39102392
mean anomaly at epoch: 233.5980°
orbit number at epoch: 20371

The dashed part of the orbit path shows where the satellite is in the earth's shadow,  

DLR